Location: Rock Island IL
(41.5000°N, 90.5500°W)
Time: 17:19:07
(UTC-05:00)

Daily predictions for brighter satellites

Satellite Brightness Start Highest point End
(mag) Time Altitude Azimuth Time Altitude Azimuth Time Altitude Azimuth
Cosmos 614 Rocket 4.0 21:05:37 10° SSW 21:10:51 89° ESE 21:16:04 10° NNE
Cosmos 2084 3.2 21:07:19 10° SSW 21:11:17 59° ESE 21:15:05 10° NE
Milstar 3 Cent rocket 4.2 21:08:32 10° WSW 21:14:13 29° S 21:23:59 10° SE
Cosmos 1867 3.7 21:09:24 10° SSW 21:14:41 55° ESE 21:20:01 10° NE
Cosmos 2333 Rocket 4.0 21:10:11 10° NW 21:14:57 29° WSW 21:19:41 10° SSW
Resurs 01 Rocket 3.5 21:12:50 10° SSW 21:16:42 30° W 21:20:34 10° NW
USA 186 3.6 21:15:27 10° SSW 21:17:12 19° W 21:18:56 10° NW
Helios 1A 3.0 21:13:46 10° SSE 21:17:54 83° WSW 21:22:05 10° NNW
USA 234 3.9 21:12:46 10° ENE 21:18:24 30° SE 21:23:59 10° S
Cosmos 1850 Rocket 4.0 21:16:25 10° SSW 21:21:35 78° ESE 21:26:48 10° NNE
Lacrosse 4 Rocket 4.3 21:20:26 10° WSW 21:23:57 24° NW 21:27:34 10° N
Cosmos 1459 Rocket 4.2 21:19:20 10° N 21:25:31 55° ENE 21:31:34 10° SSE
ERS-1 Rocket 3.2 21:22:29 10° SSE 21:27:24 57° ENE 21:32:20 10° N
Terra 4.0 21:26:23 10° ENE 21:27:41 11° ENE 21:29:00 10° NE
H-2A ROCKET BODY 3.8 21:29:05 10° SSE 21:30:30 11° SE 21:32:20 10° ESE
Cosmos 1184 Rocket 4.2 21:27:57 10° SSW 21:31:10 43° WNW 21:34:25 10° N
Cosmos 2100 Rocket 4.1 21:25:07 10° N 21:31:25 66° E 21:37:44 10° SSE
Cosmos 1356 Rocket 3.5 21:33:06 10° S 21:37:18 66° E 21:41:35 10° NNE
Cosmos 2061 Rocket 4.2 21:32:15 10° N 21:38:36 63° E 21:44:57 10° SSE
MetOp-B 4.3 21:35:17 10° SSE 21:40:31 58° ENE 21:45:48 10° N
Cosmos 2297 Rocket 4.0 21:36:00 10° SW 21:41:10 36° WNW 21:46:23 10° N
Cosmos 2173 Rocket 4.0 21:35:05 10° N 21:41:16 72° E 21:47:28 10° SSE
YAOGAN 6 3.2 21:39:48 10° S 21:43:21 56° W 21:47:00 10° NNW
H-2A R/B 3.1 21:39:05 12° SE 21:43:25 33° ENE 21:48:14 10° N
Cosmos 1726 2.8 21:46:15 10° N 21:49:42 37° ENE 21:52:04 17° SE
Cosmos 2263 Rocket 3.4 21:46:57 14° SE 21:50:02 21° E 21:54:08 10° NE
Cosmos 1818 4.0 21:44:50 10° NW 21:50:10 58° WSW 21:55:10 11° SSE
Meteor 1-21 Rocket 4.2 21:47:25 10° S 21:53:06 88° E 21:58:44 10° N
Cosmos 1300 3.6 21:49:54 10° NNE 21:53:23 32° ENE 21:55:37 18° SE
ATLAS 5 CENTAUR R/B 2.9 21:49:26 10° SW 21:53:58 49° NW 21:58:56 10° NNE
RESURS DK-1 2.8 21:49:55 10° NNW 21:54:00 51° ENE 21:56:54 18° SE
SL-14 R/B 4.1 21:53:30 16° SSE 21:56:05 34° E 21:59:39 10° NNE
Cosmos 1076 Rocket 3.8 21:51:53 10° SSW 21:56:14 72° W 22:00:36 10° N
EO 1 Delta rocket 4.4 21:55:37 16° SE 21:59:00 43° ENE 22:03:23 10° N
Cosmos 1408 Rocket 3.4 21:55:35 10° S 21:59:51 77° E 22:04:12 10° N
Meteor 2-2 Rocket 4.5 21:57:24 10° N 22:03:07 59° ENE 22:07:37 17° SSE
ERBS 3.4 22:01:10 10° NNW 22:04:19 36° NE 22:06:28 17° E
Cosmos 1725 Rocket 4.2 21:58:33 10° N 22:04:41 55° E 22:09:19 18° SSE
Cosmos 1328 4.3 22:02:47 18° SSE 22:05:24 43° E 22:09:16 10° NNE
Cosmos 1802 Rocket 4.0 21:59:46 10° N 22:05:56 86° W 22:11:50 11° S
Cosmos 2221 4.0 22:06:13 10° NNW 22:10:12 34° W 22:14:10 10° SSW
Tiangong 1 1.1 22:08:46 10° W 22:11:34 64° N 22:13:23 19° E
Cosmos 2151 4.0 22:10:59 22° SE 22:12:46 29° E 22:16:30 10° NNE
Cosmos 1603 3.7 22:12:51 10° NNW 22:18:33 87° WSW 22:22:24 21° SSE
Cosmos 1674 4.4 22:15:44 10° SW 22:19:07 32° WNW 22:22:32 10° NNW
Cosmos 1500 Rocket 4.0 22:18:03 23° SSE 22:20:23 44° E 22:24:38 10° NNE
Cosmos 1814 Rocket 4.0 22:16:16 10° NNW 22:21:38 74° ENE 22:24:55 24° SSE
Cosmos 371 Rocket 3.3 22:18:14 10° NNW 22:23:03 73° ENE 22:25:49 25° SSE
DMSP B5D2-2 4.4 22:18:16 10° NNE 22:23:18 46° E 22:26:17 23° SSE
Cosmos 1455 4.0 22:23:53 10° NNE 22:26:38 18° ENE 22:27:33 17° E
CZ-4C R/B 4.1 22:28:14 11° E 22:28:14 11° E 22:29:13 10° E
ARGOS 3.4 22:24:14 16° S 22:28:34 66° WSW 22:33:58 10° NNW
Cosmos 1486 Rocket 4.0 22:24:29 14° S 22:28:54 63° ESE 22:34:09 10° NNE
SPOT 5 3.2 22:26:16 19° S 22:29:47 67° WSW 22:34:53 10° NNW
Cosmos 841 Rocket 3.8 22:26:01 10° N 22:31:11 55° ENE 22:33:53 27° SE
CARTOSAT-1 4.2 22:29:27 26° ESE 22:31:16 41° ENE 22:35:20 10° N
Lacrosse 5 1.9 22:26:48 10° NW 22:31:51 72° SW 22:34:30 28° SSE
Cosmos 2016 Rocket 4.3 22:26:07 10° NNW 22:32:17 64° W 22:37:34 14° S
Cosmos 1763 Rocket 3.4 22:27:42 10° NNW 22:32:49 73° ENE 22:35:29 28° SSE
Cosmos 1943 3.3 22:28:00 10° NNW 22:33:38 64° ENE 22:36:46 27° SE
SL-16 R/B 4.2 22:30:36 10° NW 22:34:48 22° W 22:39:00 10° SSW
Abrixas rocket 2.3 22:34:27 10° WNW 22:37:42 70° NNE 22:38:41 40° E
SPOT 1/Viking Rocket 3.6 22:35:08 23° S 22:38:24 78° WSW 22:43:35 10° NNW
Cosmos 1328 Rocket 3.8 22:38:18 10° NNW 22:42:37 65° W 22:44:57 26° S
Cosmos 1515 Rocket 3.5 22:44:18 10° N 22:48:39 78° W 22:50:33 33° S
Cosmos 1151 Rocket 3.0 22:44:30 10° N 22:48:55 80° E 22:50:35 37° SSE
Landsat 7 3.8 22:47:28 31° SSE 22:49:45 87° WSW 22:54:32 10° NNW
IGS 5A 3.6 22:48:25 39° SE 22:49:46 61° ENE 22:53:53 10° N
H-2A R/B 2.4 22:51:01 36° SE 22:52:22 52° ENE 22:56:30 10° N
Cosmos 1743 Rocket 4.1 22:50:21 18° SSW 22:53:24 56° W 22:57:41 10° N
SME Rocket 4.4 22:52:51 22° E 22:54:06 26° ENE 22:57:55 10° N
Delta 2 Rocket 4.5 22:50:59 10° WSW 22:56:23 42° S 22:58:13 32° SE
Cosmos 2233 Rocket 3.9 22:50:27 10° N 22:56:42 86° E 23:00:00 30° S
Cosmos 2228 Rocket 3.8 22:52:41 10° NNW 22:57:08 50° W 22:59:35 24° SSW
Cosmos 1703 3.2 22:57:47 48° SSE 22:58:44 70° E 23:02:44 10° NNE
USA 234 3.4 22:55:12 10° NE 23:01:45 76° NW 23:08:16 10° WSW
Terra 1.7 23:02:54 39° SSE 23:04:41 88° W 23:09:29 10° NNW
CZ-4 R/B 3.9 23:05:03 10° NNE 23:09:51 59° ESE 23:11:05 44° SSE
Meteor 2-12 Rocket 4.4 23:05:09 10° N 23:11:15 86° W 23:14:05 34° S
Cosmos 1503 Rocket 3.9 23:12:35 33° SSW 23:14:58 84° ESE 23:20:10 10° NNE
Cosmos 1626 2.5 23:19:16 44° SW 23:20:06 57° W 23:23:48 10° N
H-2A R/B 3.4 23:19:43 19° SSW 23:22:45 32° W 23:27:36 10° NNW
Cosmos 2058 3.7 23:21:05 29° SW 23:22:50 48° W 23:26:57 10° N
Cosmos 304 Rocket 3.7 23:19:27 10° NNW 23:24:15 90° WNW 23:25:22 54° SSE
CZ-4B R/B 3.5 23:24:36 10° NNE 23:29:54 76° ESE 23:31:26 47° S
Cosmos 540 Rocket 3.3 23:26:57 10° NNW 23:32:08 90° SW 23:33:24 53° SSE
Cosmos 2263 Rocket 2.8 23:28:33 12° SW 23:33:31 53° WNW 23:39:00 10° NNE
Cosmos 968 Rocket 4.0 23:33:12 39° ESE 23:33:33 40° ESE 23:38:26 10° NE
Spot 4 3.8 23:34:13 54° S 23:35:21 85° WSW 23:40:15 10° NNW
Sich 1 3.0 23:36:53 59° ESE 23:36:59 60° E 23:41:12 10° NNE
COSMOS 2406 4.0 23:37:30 10° NNW 23:42:55 43° ENE 23:44:53 32° ESE
SL-24 R/B 4.4 23:43:08 68° SSW 23:43:29 74° WSW 23:47:40 10° NNW
Cosmos 2285 Rocket 4.1 23:38:03 10° NNW 23:44:21 67° WSW 23:46:33 41° S
deb Chang Zheng 4 4.3 23:41:09 10° N 23:45:23 50° WNW 23:46:51 35° SW
Tiangong 1 3.9 23:44:25 10° W 23:44:32 11° W 23:44:32 11° W
ALOS 2 3.8 23:48:17 29° E 23:48:49 30° ENE 23:52:38 10° N
DELTA 2 DEB (DPAF) 4.1 23:48:50 65° SSW 23:49:21 74° WSW 23:53:50 10° NNW
Cosmos 2034 Rocket 4.0 23:43:17 10° N 23:49:39 74° E 23:51:34 47° SSE
Cosmos 1707 Rocket 3.5 23:46:07 10° N 23:50:37 80° W 23:51:03 71° SSW
